Weather History for KATS - February, 2013

Change the Weather History Date:

Tuesday, February 26, 2013

  Actual Average (KROW) Record (KROW)
Temperature  
Mean Temperature 44 °F 48 °F  
Max Temperature 68 °F 63 °F 85 °F (2009)
Min Temperature 21 °F 33 °F 13 °F (1952)
Degree Days  
Heating Degree Days 20 17  
Month to date heating degree days 508  
Since 1 July heating degree days 2674  
Cooling Degree Days 0 0  
Month to date cooling degree days 0  
Year to date cooling degree days 0  
Moisture  
Dew Point 7 °F    
Average Humidity 27    
Maximum Humidity 58    
Minimum Humidity 7    
Precipitation  
Precipitation 0.00 in 0.02 in 0.18 in (1987)
Month to date precipitation 0.39  
Year to date precipitation 0.77  
Sea Level Pressure  
Sea Level Pressure 29.84 in    
Wind  
Wind Speed 8 mph (SSW)    
Max Wind Speed 30 mph    
Max Gust Speed 40 mph    
Visibility 10 miles    
Events      
T = Trace of Precipitation, MM = Missing Value Source: NWS Daily Summary

Daily Weather History Graph

Daily Weather History Graph

Search for Another Location

Airport or City:

Trip Planner

Search our weather history database for the weather conditions in past years. The results will help you decide how hot, cold, wet, or windy it might be!

Date:

Astronomy

Feb. 26, 2013 Rise Set
Actual Time 6:28 AM MST 5:52 PM MST
Civil Twilight 6:04 AM MST 6:17 PM MST
Nautical Twilight 5:35 AM MST 6:46 PM MST
Astronomical Twilight 5:06 AM MST 7:15 PM MST
Moon 7:04 PM MST (2/26) 6:38 AM MST (2/26)
Length of Visible Light 12h 13m
Length of Day
11h 24m
Full, 99% of the Moon is Illuminated
Feb 26
Full
Mar 4
Last Quarter
Mar 11
New
Mar 19
First Quarter
Mar 27
Full

Hourly Weather History & Observations

Time (MST) Temp. Windchill Dew Point Humidity Pressure Visibility Wind Dir Wind Speed Gust Speed Precip Events Conditions
12:15 AM 33.8 °F - 8.6 °F 35% 29.90 in 10.0 mi Calm Calm - N/A   Clear
12:35 AM 32.0 °F - 8.6 °F 38% 29.90 in 10.0 mi Calm Calm - N/A   Clear
12:55 AM 32.0 °F 28.7 °F 8.6 °F 38% 29.90 in 10.0 mi SSE 3.5 mph - N/A   Clear
1:15 AM 30.2 °F 22.6 °F 8.6 °F 40% 29.89 in 10.0 mi SSE 8.1 mph - N/A   Clear
1:35 AM 28.4 °F 23.3 °F 8.6 °F 43% 29.89 in 10.0 mi SSE 4.6 mph - N/A   Clear
1:55 AM 28.4 °F 23.3 °F 8.6 °F 43% 29.88 in 10.0 mi South 4.6 mph - N/A   Clear
2:15 AM 28.4 °F 22.2 °F 8.6 °F 43% 29.88 in 10.0 mi South 5.8 mph - N/A   Clear
2:35 AM 28.4 °F 23.3 °F 10.4 °F 47% 29.87 in 10.0 mi South 4.6 mph - N/A   Clear
2:55 AM 26.6 °F - 10.4 °F 51% 29.87 in 10.0 mi Calm Calm - N/A   Clear
3:15 AM 26.6 °F 22.6 °F 8.6 °F 47% 29.87 in 10.0 mi SW 3.5 mph - N/A   Clear
3:35 AM 26.6 °F - 8.6 °F 47% 29.86 in 10.0 mi Calm Calm - N/A   Clear
3:55 AM 24.8 °F 19.1 °F 8.6 °F 50% 29.86 in 10.0 mi West 4.6 mph - N/A   Clear
4:15 AM 26.6 °F - 8.6 °F 47% 29.86 in 10.0 mi Calm Calm - N/A   Clear
4:35 AM 26.6 °F - 8.6 °F 47% 29.86 in 10.0 mi Calm Calm - N/A   Clear
4:55 AM 24.8 °F - 8.6 °F 50% 29.86 in 10.0 mi Calm Calm - N/A   Clear
5:15 AM 23.0 °F 15.8 °F 8.6 °F 54% 29.87 in 10.0 mi North 5.8 mph - N/A   Clear
5:35 AM 24.8 °F - 10.4 °F 54% 29.87 in 10.0 mi Calm Calm - N/A   Clear
5:55 AM 24.8 °F 20.5 °F 10.4 °F 54% 29.87 in 10.0 mi NNW 3.5 mph - N/A   Clear
6:15 AM 23.0 °F - 8.6 °F 54% 29.87 in 10.0 mi Calm Calm - N/A   Clear
6:35 AM 21.2 °F - 8.6 °F 58% 29.87 in 10.0 mi Calm Calm - N/A   Clear
6:55 AM 24.8 °F 19.1 °F 8.6 °F 50% 29.87 in 10.0 mi SW 4.6 mph - N/A   Clear
7:15 AM 28.4 °F 22.2 °F 10.4 °F 47% 29.87 in 10.0 mi SSW 5.8 mph - N/A   Clear
7:35 AM 32.0 °F - 10.4 °F 41% 29.88 in 10.0 mi Calm Calm - N/A   Clear
7:55 AM 35.6 °F 29.9 °F 12.2 °F 38% 29.88 in 10.0 mi South 6.9 mph - N/A   Clear
8:15 AM 37.4 °F 34.9 °F 12.2 °F 36% 29.87 in 10.0 mi South 3.5 mph - N/A   Clear
8:35 AM 39.2 °F 35.0 °F 14.0 °F 36% 29.87 in 10.0 mi SSE 5.8 mph - N/A   Clear
8:55 AM 41.0 °F 37.1 °F 14.0 °F 33% 29.87 in 10.0 mi SE 5.8 mph - N/A   Clear
9:15 AM 41.0 °F 38.0 °F 14.0 °F 33% 29.87 in 10.0 mi SSE 4.6 mph - N/A   Clear
9:35 AM 44.6 °F 40.7 °F 12.2 °F 27% 29.87 in 10.0 mi East 6.9 mph - N/A   Clear
9:55 AM 46.4 °F 44.3 °F 14.0 °F 27% 29.86 in 10.0 mi East 4.6 mph - N/A   Clear
10:15 AM 48.2 °F - 14.0 °F 25% 29.85 in 10.0 mi East 4.6 mph - N/A   Clear
10:35 AM 50.0 °F - 14.0 °F 24% 29.85 in 10.0 mi ESE 6.9 mph - N/A   Clear
10:55 AM 53.6 °F - 14.0 °F 21% 29.84 in 10.0 mi SE 6.9 mph - N/A   Clear
11:15 AM 57.2 °F - 10.4 °F 16% 29.83 in 10.0 mi SE 8.1 mph - N/A   Clear
11:35 AM 59.0 °F - 6.8 °F 13% 29.82 in 10.0 mi SE 6.9 mph - N/A   Clear
11:55 AM 60.8 °F - 1.4 °F 9% 29.80 in 10.0 mi ESE 9.2 mph - N/A   Clear
12:15 PM 62.6 °F - 1.4 °F 9% 29.78 in 10.0 mi SE 12.7 mph - N/A   Clear
12:35 PM 62.6 °F - 1.4 °F 9% 29.77 in 10.0 mi South 13.8 mph 24.2 mph N/A   Clear
12:55 PM 64.4 °F - 3.2 °F 9% 29.75 in 10.0 mi South 13.8 mph 24.2 mph N/A   Clear
1:15 PM 64.4 °F - 3.2 °F 9% 29.74 in 10.0 mi South 16.1 mph 25.3 mph N/A   Clear
1:35 PM 64.4 °F - 5.0 °F 10% 29.73 in 10.0 mi SW 18.4 mph 24.2 mph N/A   Clear
1:55 PM 64.4 °F - 5.0 °F 10% 29.72 in 10.0 mi SW 16.1 mph 28.8 mph N/A   Clear
2:15 PM 66.2 °F - 6.8 °F 10% 29.71 in 10.0 mi South 20.7 mph 27.6 mph N/A   Clear
2:35 PM 66.2 °F - 5.0 °F 9% 29.69 in 10.0 mi SW 20.7 mph 32.2 mph N/A   Clear
2:55 PM 68.0 °F - -0.4 °F 7% 29.68 in 10.0 mi WSW 29.9 mph 40.3 mph N/A   Clear
3:15 PM 68.0 °F - -0.4 °F 7% 29.68 in 10.0 mi WSW 29.9 mph 40.3 mph N/A   Clear
3:35 PM 66.2 °F - -0.4 °F 7% 29.68 in 10.0 mi WSW 28.8 mph 38.0 mph N/A   Clear
3:55 PM 66.2 °F - -0.4 °F 7% 29.68 in 10.0 mi WSW 29.9 mph 34.5 mph N/A   Clear
4:15 PM 66.2 °F - -0.4 °F 7% 29.69 in 10.0 mi SW 24.2 mph 35.7 mph N/A   Clear
4:35 PM 66.2 °F - -0.4 °F 7% 29.70 in 10.0 mi WSW 28.8 mph 34.5 mph N/A   Clear
4:55 PM 64.4 °F - -0.4 °F 7% 29.71 in 10.0 mi WSW 25.3 mph 34.5 mph N/A   Clear
5:15 PM 62.6 °F - -0.4 °F 8% 29.72 in 10.0 mi WSW 23.0 mph 26.5 mph N/A   Clear
5:35 PM 62.6 °F - 1.4 °F 9% 29.73 in 10.0 mi WSW 17.3 mph 23.0 mph N/A   Clear
5:55 PM 59.0 °F - 1.4 °F 10% 29.74 in 10.0 mi WSW 8.1 mph - N/A   Clear
6:15 PM 57.2 °F - 1.4 °F 10% 29.76 in 10.0 mi WNW 4.6 mph - N/A   Clear
6:35 PM 53.6 °F - 8.6 °F 16% 29.79 in 10.0 mi North 25.3 mph 32.2 mph N/A   Clear
6:55 PM 51.8 °F - 10.4 °F 19% 29.81 in 10.0 mi NNE 27.6 mph 39.1 mph N/A   Clear
7:15 PM 48.2 °F - 8.6 °F 20% 29.84 in 10.0 mi NNE 21.9 mph 27.6 mph N/A   Clear
7:35 PM 46.4 °F 38.3 °F 6.8 °F 20% 29.86 in 10.0 mi NNE 23.0 mph 32.2 mph N/A   Clear
7:55 PM 44.6 °F 35.9 °F 6.8 °F 21% 29.87 in 10.0 mi NNE 23.0 mph 31.1 mph N/A   Clear
8:15 PM 44.6 °F 36.1 °F 6.8 °F 21% 29.89 in 10.0 mi NNE 21.9 mph 29.9 mph N/A   Clear
8:35 PM 42.8 °F 34.3 °F 6.8 °F 23% 29.91 in 10.0 mi NNE 19.6 mph 25.3 mph N/A   Clear
8:55 PM 41.0 °F 32.8 °F 6.8 °F 24% 29.92 in 10.0 mi North 16.1 mph 21.9 mph N/A   Clear
9:15 PM 41.0 °F 33.1 °F 6.8 °F 24% 29.94 in 10.0 mi NNE 15.0 mph - N/A   Clear
9:55 PM 41.0 °F 31.6 °F 5.0 °F 23% 29.97 in 10.0 mi North 20.7 mph 26.5 mph N/A   Clear
10:15 PM 41.0 °F 32.8 °F 3.2 °F 21% 29.98 in 10.0 mi North 16.1 mph - N/A   Clear
10:35 PM 41.0 °F 32.5 °F 1.4 °F 19% 30.00 in 10.0 mi North 17.3 mph - N/A   Clear
10:55 PM 39.2 °F 30.8 °F -0.4 °F 19% 30.01 in 10.0 mi North 15.0 mph - N/A   Clear
11:15 PM 39.2 °F 30.8 °F 1.4 °F 21% 30.02 in 10.0 mi NNW 15.0 mph 20.7 mph N/A   Clear
11:35 PM 41.0 °F 31.9 °F -0.4 °F 18% 30.03 in 10.0 mi NNW 19.6 mph 27.6 mph N/A   Clear
11:55 PM 39.2 °F 30.5 °F -0.4 °F 19% 30.04 in 10.0 mi NNW 16.1 mph 20.7 mph N/A   Clear